Change the Weather History Date:

Saturday, January 19, 2013

  Actual Average (KMVE) Record (KMVE)
Temperature  
Mean Temperature 20 °F -  
Max Temperature 38 °F 22 °F 48 °F (2015)
Min Temperature 0 °F 3 °F -37 °F (1970)
Degree Days  
Heating Degree Days 46    
Moisture  
Dew Point 16 °F    
Average Humidity 79    
Maximum Humidity 90    
Minimum Humidity 63    
Precipitation  
Precipitation 0.00 in - - ()
Sea Level Pressure  
Sea Level Pressure 29.96 in    
Wind  
Wind Speed 14 mph (West)    
Max Wind Speed 37 mph    
Max Gust Speed 45 mph    
Visibility 10 miles    
Events      
Averages and records for this station are not official NWS values.
T = Trace of Precipitation, MM = Missing Value Source: NWS Daily Summary

Daily Weather History Graph

Daily Weather History Graph

Search for Another Location

Airport or City:

Trip Planner

Search our weather history database for the weather conditions in past years. The results will help you decide how hot, cold, wet, or windy it might be!

Date:

Astronomy

Jan. 19, 2013 Rise Set
Actual Time 7:53 AM CST 5:13 PM CST
Civil Twilight 7:21 AM CST 5:45 PM CST
Nautical Twilight 6:45 AM CST 6:21 PM CST
Astronomical Twilight 6:10 AM CST 6:56 PM CST
Moon 11:42 AM CST (1/19) 1:24 AM CST (1/19)
Length of Visible Light 10h 24m
Length of Day
9h 19m
First Quarter, 57% of the Moon is Illuminated
Jan 19
First Quarter
Jan 26
Full
Feb 3
Last Quarter
Feb 10
New
Feb 17
First Quarter

Hourly Weather History & Observations

Time (CST) Temp. Windchill Dew Point Humidity Pressure Visibility Wind Dir Wind Speed Gust Speed Precip Events Conditions
12:11 AM 28.8 °F 23.7 °F 24.6 °F 84% 29.75 in 10.0 mi South 4.6 mph - N/A   Clear
12:30 AM 26.4 °F 16.6 °F 23.5 °F 89% 29.75 in 10.0 mi South 10.4 mph - N/A   Clear
12:51 AM 28.6 °F 19.3 °F 25.3 °F 88% 29.74 in 10.0 mi South 10.4 mph - N/A   Clear
1:10 AM 29.8 °F 21.5 °F 26.2 °F 86% 29.74 in 10.0 mi South 9.2 mph - N/A   Clear
1:30 AM 28.4 °F 19.7 °F 25.3 °F 88% 29.74 in 10.0 mi South 9.2 mph - N/A   Clear
1:50 AM 29.3 °F 20.8 °F 26.8 °F 90% 29.74 in 10.0 mi South 9.2 mph - N/A   Clear
2:11 AM 30.6 °F 23.8 °F 26.4 °F 85% 29.74 in 10.0 mi South 6.9 mph - N/A   Clear
2:30 AM 29.8 °F 23.0 °F 27.0 °F 89% 29.74 in 10.0 mi SSW 6.9 mph - N/A   Clear
2:51 AM 28.9 °F 22.8 °F 25.7 °F 88% 29.73 in 10.0 mi South 5.8 mph - N/A   Clear
3:11 AM 26.6 °F 18.2 °F 23.2 °F 87% 29.71 in 10.0 mi South 8.1 mph - N/A   Clear
3:30 AM 30.9 °F 22.2 °F 26.8 °F 85% 29.71 in 10.0 mi South 10.4 mph - N/A   Clear
3:51 AM 28.4 °F 19.7 °F 23.9 °F 83% 29.73 in 10.0 mi WSW 9.2 mph - N/A   Clear
4:10 AM 28.0 °F 18.1 °F 24.3 °F 86% 29.72 in 10.0 mi WSW 11.5 mph - N/A   Clear
4:31 AM 29.1 °F 18.9 °F 24.8 °F 84% 29.72 in 10.0 mi WSW 12.7 mph - N/A   Clear
4:51 AM 29.5 °F 19.9 °F 25.3 °F 85% 29.72 in 10.0 mi SW 11.5 mph - N/A   Clear
5:10 AM 29.1 °F 18.4 °F 25.0 °F 85% 29.72 in 10.0 mi WSW 13.8 mph - N/A   Clear
5:31 AM 28.0 °F 18.6 °F 23.5 °F 83% 29.73 in 10.0 mi WSW 10.4 mph - N/A   Clear
5:51 AM 26.8 °F 15.9 °F 23.2 °F 86% 29.73 in 10.0 mi WSW 12.7 mph - N/A   Clear
6:10 AM 28.0 °F 18.1 °F 23.9 °F 84% 29.73 in 10.0 mi WSW 11.5 mph - N/A   Clear
6:31 AM 28.2 °F 18.9 °F 24.3 °F 85% 29.73 in 10.0 mi WSW 10.4 mph - N/A   Clear
6:50 AM 29.1 °F 20.6 °F 25.2 °F 85% 29.74 in 10.0 mi WSW 9.2 mph - N/A   Scattered Clouds
7:10 AM 30.7 °F 22.0 °F 26.4 °F 84% 29.75 in 10.0 mi West 10.4 mph - N/A   Mostly Cloudy
7:30 AM 31.6 °F 21.6 °F 27.1 °F 83% 29.76 in 10.0 mi West 13.8 mph - N/A   Overcast
7:50 AM 32.2 °F 21.8 °F 27.5 °F 83% 29.77 in 10.0 mi West 15.0 mph - N/A   Overcast
8:10 AM 32.5 °F 22.3 °F 27.7 °F 82% 29.78 in 10.0 mi West 15.0 mph - N/A   Mostly Cloudy
8:30 AM 32.0 °F 23.0 °F 27.5 °F 83% 29.78 in 10.0 mi West 11.5 mph - N/A   Scattered Clouds
8:51 AM 32.2 °F 22.7 °F 27.5 °F 83% 29.81 in 10.0 mi West 12.7 mph - N/A   Scattered Clouds
9:31 AM 32.9 °F 24.1 °F 28.2 °F 83% 29.83 in 10.0 mi West 11.5 mph - N/A   Mostly Cloudy
9:50 AM 34.7 °F 25.9 °F 29.5 °F 81% 29.83 in 10.0 mi West 12.7 mph - N/A   Mostly Cloudy
10:11 AM 35.6 °F 24.8 °F 29.7 °F 79% 29.84 in 10.0 mi West 19.6 mph - N/A   Scattered Clouds
10:30 AM 36.3 °F 26.1 °F 30.2 °F 78% 29.85 in 10.0 mi West 18.4 mph - N/A   Scattered Clouds
10:51 AM 36.5 °F 26.7 °F 30.2 °F 78% 29.85 in 10.0 mi West 17.3 mph - N/A   Clear
11:10 AM 36.9 °F 26.8 °F 30.4 °F 77% 29.86 in 10.0 mi West 18.4 mph - N/A   Clear
11:31 AM 38.1 °F 29.5 °F 30.6 °F 74% 29.86 in 10.0 mi WNW 15.0 mph - N/A   Mostly Cloudy
11:51 AM 36.5 °F 27.8 °F 30.6 °F 79% 29.86 in 10.0 mi West 13.8 mph - N/A   Scattered Clouds
12:10 PM 37.0 °F 27.0 °F 30.2 °F 76% 29.86 in 10.0 mi West 18.4 mph 23.0 mph N/A   Mostly Cloudy
12:31 PM 36.3 °F 25.5 °F 30.4 °F 79% 29.86 in 10.0 mi West 20.7 mph 26.5 mph N/A   Overcast
12:51 PM 35.6 °F 22.3 °F 30.0 °F 80% 29.88 in 10.0 mi WNW 31.1 mph 36.8 mph N/A   Overcast
1:10 PM 29.1 °F 13.5 °F 23.7 °F 80% 29.91 in 10.0 mi NNW 31.1 mph 38.0 mph N/A   Overcast
1:31 PM 26.2 °F 11.5 °F 20.5 °F 79% 29.93 in 10.0 mi NNW 23.0 mph 35.7 mph N/A   Overcast
1:51 PM 25.2 °F 8.3 °F 19.6 °F 79% 29.95 in 10.0 mi NW 29.9 mph 36.8 mph N/A   Overcast
1:53 PM 25.2 °F 8.6 °F 19.6 °F 79% 29.95 in 10.0 mi NW 28.8 mph 36.8 mph N/A   Overcast
2:59 PM - - - N/A% 30.02 in - WNW 34.5 mph - N/A   Unknown
3:11 PM 19.4 °F -1.1 °F 10.4 °F 68% 30.03 in 10.0 mi WNW 36.8 mph 44.9 mph N/A   Unknown
3:30 PM 19.4 °F 0.8 °F 11.1 °F 70% 30.05 in 10.0 mi WNW 28.8 mph 44.9 mph N/A   Mostly Cloudy
3:51 PM 16.3 °F -3.6 °F 6.6 °F 66% 30.07 in 10.0 mi WNW 29.9 mph 44.9 mph N/A   Scattered Clouds
4:10 PM 15.8 °F -5.8 °F 5.4 °F 63% 30.08 in 10.0 mi WNW 35.7 mph 42.6 mph N/A   Clear
4:31 PM 14.9 °F -4.9 °F 6.3 °F 69% 30.10 in 10.0 mi WNW 27.6 mph 42.6 mph N/A   Clear
4:50 PM 13.8 °F -5.7 °F 5.5 °F 70% 30.13 in 10.0 mi WNW 25.3 mph 34.5 mph N/A   Clear
5:11 PM 12.4 °F -9.0 °F 3.9 °F 69% 30.15 in 10.0 mi WNW 29.9 mph 36.8 mph N/A   Scattered Clouds
5:30 PM 11.3 °F -11.1 °F 3.9 °F 72% 30.17 in 10.0 mi WNW 32.2 mph 39.1 mph N/A   Scattered Clouds
5:51 PM 10.0 °F -12.2 °F 2.3 °F 71% 30.19 in 10.0 mi WNW 29.9 mph 42.6 mph N/A   Scattered Clouds
6:10 PM 9.1 °F -10.7 °F 1.2 °F 70% 30.21 in 10.0 mi WNW 21.9 mph 40.3 mph N/A   Scattered Clouds
6:31 PM 8.2 °F -14.6 °F 1.4 °F 74% 30.23 in 10.0 mi WNW 29.9 mph 36.8 mph N/A   Scattered Clouds
6:51 PM 7.7 °F -13.1 °F 1.4 °F 75% 30.23 in 10.0 mi WNW 23.0 mph 33.4 mph N/A   Mostly Cloudy
7:10 PM 7.2 °F -13.3 °F 0.3 °F 74% 30.25 in 10.0 mi WNW 21.9 mph 32.2 mph N/A   Mostly Cloudy
7:31 PM 6.1 °F -16.8 °F -1.1 °F 72% 30.27 in 10.0 mi WNW 27.6 mph 33.4 mph N/A   Scattered Clouds
7:51 PM 5.9 °F -15.9 °F -1.5 °F 72% 30.28 in 10.0 mi WNW 24.2 mph 28.8 mph N/A   Scattered Clouds
8:11 PM 5.2 °F -15.0 °F -1.8 °F 73% 30.28 in 10.0 mi WNW 19.6 mph 26.5 mph N/A   Scattered Clouds
8:30 PM 4.8 °F -17.7 °F -2.6 °F 72% 30.30 in 10.0 mi WNW 25.3 mph 31.1 mph N/A   Scattered Clouds
8:51 PM 4.1 °F -15.9 °F -1.5 °F 78% 30.30 in 7.0 mi WNW 18.4 mph 24.2 mph N/A   Mostly Cloudy
9:10 PM 3.9 °F -16.1 °F -1.3 °F 79% 30.30 in 4.0 mi NW 18.4 mph - N/A   Haze
9:31 PM 3.2 °F -19.0 °F -4.2 °F 71% 30.31 in 10.0 mi NW 23.0 mph 29.9 mph N/A   Scattered Clouds
9:51 PM 2.7 °F -16.0 °F -2.9 °F 78% 30.30 in 7.0 mi WNW 15.0 mph - N/A   Scattered Clouds
10:11 PM 2.3 °F -19.3 °F -4.2 °F 74% 30.30 in 7.0 mi WNW 20.7 mph 27.6 mph N/A   Scattered Clouds
10:31 PM 1.8 °F -18.9 °F -4.0 °F 77% 30.32 in 7.0 mi WNW 18.4 mph - N/A   Scattered Clouds
10:51 PM 1.4 °F -18.8 °F -4.7 °F 76% 30.33 in 10.0 mi WNW 17.3 mph 23.0 mph N/A   Scattered Clouds
11:10 PM 1.4 °F -18.2 °F -5.1 °F 74% 30.34 in 10.0 mi WNW 16.1 mph - N/A   Clear
11:31 PM 1.2 °F -18.4 °F -4.9 °F 75% 30.34 in 10.0 mi WNW 16.1 mph - N/A   Clear
11:51 PM 0.9 °F -18.3 °F -4.9 °F 77% 30.33 in 10.0 mi WNW 15.0 mph 20.7 mph N/A   Clear